GFSSW_700_temp_273.txt.gz
Temp
11 12 12 12 12 13 13 13 13 13 14 14 14 14 14 14 14 14 14 15 15 15 16 16 16 16 17 17 18 18 18 18 17 17 16 16 15 15 15 15 14 14 14 13 12
11 11 12 12 12 12 13 13 13 13 13 14 14 14 14 14 14 15 14 15 15 15 16 16 17 16 17 17 18 18 18 18 18 17 17 17 17 16 14 14 13 13 13 12 11
11 11 11 12 12 12 13 13 13 13 13 13 14 14 14 15 15 15 15 15 15 15 16 16 17 17 17 18 18 18 18 18 18 18 17 16 16 16 15 13 14 14 14 12 10
11 11 11 11 12 12 13 13 13 13 13 14 14 14 14 14 14 15 15 15 15 15 16 16 17 16 17 17 19 19 19 19 18 18 18 17 16 15 16 14 14 13 12 11 10
10 11 11 11 12 12 12 13 13 13 13 13 14 14 14 14 14 14 15 15 15 15 16 16 16 16 17 18 18 19 19 19 19 18 18 17 16 16 15 13 13 14 12 11 10
10 10 11 11 12 12 12 12 13 13 13 14 14 14 14 15 14 14 14 15 15 15 15 15 16 16 17 18 18 19 18 19 19 19 18 18 16 16 14 13 14 13 12 12 12
10 10 11 11 11 12 12 12 13 13 13 13 14 14 15 15 14 12 15 15 15 15 15 15 16 16 16 17 18 18 18 19 19 19 18 18 17 17 15 11 13 13 12 12 12
9 10 10 11 11 11 12 12 12 13 13 13 14 14 15 15 14 14 15 15 15 15 15 15 15 16 16 17 17 18 19 19 19 19 19 19 17 17 15 14 14 14 12 12 12
9 10 10 11 11 11 12 12 12 12 13 13 13 14 15 15 15 15 15 15 14 15 14 15 15 15 16 16 17 18 19 19 18 19 19 19 18 18 17 16 15 15 13 13 12
9 10 10 11 11 11 12 11 11 12 12 12 13 14 14 14 15 15 15 15 14 14 15 15 15 15 16 16 17 18 18 18 18 19 19 19 18 18 17 16 15 16 15 15 13
9 10 10 10 11 11 11 11 11 11 12 13 11 13 13 13 13 14 14 14 14 14 14 14 15 15 16 17 17 18 17 19 19 19 19 19 19 18 17 17 16 17 17 17 13
9 9 10 10 10 11 11 11 11 11 13 13 13 14 13 13 13 13 13 13 13 13 14 15 15 15 16 17 17 18 17 17 18 19 19 19 19 18 17 18 17 17 17 16 16
9 9 10 10 10 11 10 10 11 10 10 15 15 14 14 13 13 14 14 13 13 13 15 15 15 16 16 17 18 18 18 18 18 19 19 19 19 18 17 17 17 17 15 16 15
9 9 10 10 10 10 10 9 10 10 11 15 14 14 13 12 13 14 14 14 13 14 14 15 16 16 17 18 18 18 18 18 19 19 19 19 18 19 19 18 18 17 16 15 14
9 9 9 9 10 9 10 10 11 10 9 15 14 14 14 13 15 15 14 14 14 14 15 15 16 17 17 18 18 18 17 18 19 19 19 20 19 19 19 18 18 17 17 15 12
9 9 9 9 9 9 10 10 11 10 11 15 15 15 14 13 14 14 15 14 14 15 15 16 17 17 18 18 19 19 18 18 19 19 17 16 18 17 18 19 18 17 17 15 13
9 9 8 9 9 10 10 10 9 10 16 16 15 14 14 14 14 14 15 15 14 15 15 16 17 17 18 18 18 19 17 17 14 14 14 17 16 18 18 18 18 18 17 16 15
9 9 9 9 9 9 9 10 9 13 15 16 16 15 15 15 15 15 15 15 15 15 16 16 17 17 18 18 18 19 19 18 15 12 15 18 16 18 18 18 18 18 17 16 16
9 9 9 9 9 9 9 8 11 13 14 15 16 16 16 16 16 15 15 15 15 15 15 16 17 18 18 18 18 18 18 19 17 16 17 17 16 17 18 18 18 18 17 16 16
9 9 9 9 9 9 9 10 10 12 14 14 15 16 16 17 16 16 16 16 16 16 16 16 16 18 18 18 18 18 18 18 18 13 14 17 17 17 17 17 18 18 17 16 16
8 8 8 9 9 8 9 10 12 13 13 14 14 14 15 16 17 17 17 17 17 16 16 16 16 18 18 19 18 18 18 18 18 17 14 13 15 16 17 18 18 17 17 16 16
8 7 6 7 7 8 9 10 11 12 13 14 14 14 14 15 16 17 17 17 17 17 17 17 17 17 18 19 19 19 18 18 17 18 19 17 15 16 17 16 17 17 17 16 16
8 6 6 6 7 8 9 10 11 11 12 13 14 14 14 15 15 16 17 17 17 17 17 17 17 17 17 18 19 19 19 19 19 19 19 16 16 16 18 18 18 17 15 15 13
7 7 7 7 8 8 9 10 11 12 13 13 13 14 14 14 15 15 16 16 17 17 17 17 17 17 17 18 17 18 18 19 19 19 18 17 17 17 17 17 16 14 15 17 17
7 6 6 7 8 8 9 10 11 12 13 13 13 13 14 14 14 15 15 16 16 17 17 17 17 17 17 17 17 17 17 18 18 19 18 17 17 17 17 17 17 17 14 15 16
6 7 6 8 8 8 9 10 11 12 12 13 13 13 13 14 14 13 14 15 15 16 17 17 16 16 16 16 17 16 17 16 18 19 18 18 17 17 16 17 17 16 16 14 14
7 7 7 8 8 8 9 9 10 11 12 13 14 13 14 13 13 13 14 14 15 15 15 15 16 16 16 17 17 16 17 18 19 18 18 17 16 17 16 16 17 17 16 15 15

GFSSW_700_temp_276.txt.gz
Temp
11 12 12 12 13 13 13 13 13 14 14 14 14 14 14 14 14 14 14 15 15 16 16 16 16 16 16 17 17 16 17 17 15 17 17 16 15 15 15 15 14 13 12 12 12
11 11 12 12 12 12 13 13 13 13 14 14 14 14 14 14 14 14 14 15 15 16 16 16 17 16 17 17 17 17 18 18 17 17 17 16 15 15 15 14 13 12 12 10 12
11 11 11 12 12 12 13 13 13 13 14 14 14 14 14 15 15 15 14 15 15 16 16 16 16 16 17 17 18 18 18 18 18 18 18 17 16 16 14 14 13 12 12 10 10
11 11 11 12 12 12 13 13 13 13 14 14 14 14 14 15 15 15 14 15 15 15 16 16 16 16 17 17 18 17 18 18 18 18 18 17 17 16 15 14 13 13 12 10 9
10 11 11 11 12 12 12 13 13 13 14 14 14 14 15 15 15 15 15 15 15 15 15 16 16 16 16 16 17 18 18 18 18 18 18 17 16 17 15 14 13 13 12 12 12
10 11 11 11 12 12 12 13 13 13 14 14 14 14 15 15 14 14 15 15 15 15 15 15 16 15 16 16 17 17 18 18 18 18 18 17 16 16 15 15 13 13 11 12 12
10 10 11 11 12 12 12 12 13 13 13 14 14 15 15 14 14 14 15 15 15 15 15 15 15 15 15 16 17 17 18 19 18 18 17 16 17 16 16 15 16 15 14 11 11
10 10 11 11 11 12 12 12 12 13 13 14 14 15 15 14 15 15 15 15 15 15 15 15 15 15 15 16 17 17 18 18 18 17 17 17 16 17 17 16 16 15 13 12 12
10 10 10 11 11 11 12 12 12 12 13 13 14 14 15 15 15 15 14 15 15 15 15 15 15 15 15 16 16 17 17 18 18 18 18 17 16 16 16 16 16 15 13 13 13
9 10 10 11 11 11 11 11 12 12 13 13 14 14 14 14 14 14 14 14 14 15 15 15 15 15 16 16 16 17 17 18 18 19 18 19 18 17 17 16 16 14 14 14 14
9 10 10 10 11 11 11 11 11 11 12 13 14 14 14 14 14 14 14 14 14 14 14 15 14 15 16 16 16 16 16 17 18 18 18 19 18 18 18 17 17 16 15 13 14
9 10 10 10 10 11 11 10 10 10 14 13 14 14 14 14 14 14 13 14 13 14 14 14 14 15 16 16 16 16 17 17 18 18 18 19 19 17 18 17 17 17 13 14 14
10 10 10 10 10 10 11 11 11 11 13 15 15 15 13 14 14 14 13 14 13 13 14 14 14 15 15 16 16 16 17 17 18 18 18 19 18 18 17 17 16 15 15 15 15
10 10 10 10 10 10 11 11 11 12 13 15 15 15 14 13 15 14 13 13 13 13 14 14 15 15 15 15 16 16 17 17 17 17 18 18 18 18 18 17 16 15 14 14 15
10 10 9 9 10 10 10 10 11 12 10 15 15 14 14 14 14 15 14 13 13 13 13 14 15 15 15 16 16 17 17 18 18 17 18 17 18 17 17 17 17 16 16 16 16
10 10 10 10 10 10 10 10 10 11 12 14 15 15 14 15 14 14 13 13 13 14 14 14 15 15 16 17 17 17 17 17 17 18 16 17 17 18 17 19 17 17 17 17 16
10 10 10 10 9 10 10 10 10 10 14 14 14 15 14 14 14 14 13 13 13 14 14 14 15 16 16 16 17 17 18 16 15 14 14 17 17 18 18 18 17 17 17 17 16
10 10 10 9 10 10 10 10 9 12 14 14 13 15 15 15 15 14 14 14 14 14 14 15 15 16 16 17 17 18 18 17 13 11 15 17 17 18 18 18 17 17 16 16 16
10 10 9 9 10 10 10 9 11 12 13 12 14 15 15 15 15 15 14 14 15 15 14 14 15 17 17 17 17 18 17 17 17 15 15 17 17 18 18 18 18 17 16 16 16
9 10 9 9 9 10 9 10 11 12 12 13 12 14 14 14 14 15 15 15 15 15 15 15 15 16 17 17 17 18 18 17 17 12 14 16 16 17 17 18 18 17 17 16 15
9 8 8 8 9 9 9 10 12 13 12 12 13 13 14 14 14 14 16 16 16 16 16 16 16 17 16 17 17 18 18 18 17 17 13 12 16 17 17 17 17 15 15 14 14
8 7 8 7 7 8 9 10 10 12 12 12 12 13 14 14 14 14 15 16 17 17 16 16 16 16 17 17 17 17 18 18 17 17 17 16 17 17 16 16 16 15 14 13 12
7 6 7 7 8 8 9 10 9 11 12 12 12 13 13 14 14 14 15 15 15 16 17 17 16 16 16 17 17 17 18 18 18 18 17 15 17 17 16 17 16 16 16 15 14
7 6 5 6 7 7 8 9 10 10 12 11 12 13 13 13 14 14 14 15 16 16 17 17 17 17 16 17 17 17 17 17 16 17 17 17 18 17 17 17 15 15 15 15 13
7 6 6 6 6 6 7 8 9 10 11 12 12 13 13 13 13 13 14 15 15 15 16 17 17 17 17 16 16 17 17 17 17 17 17 18 18 18 17 16 16 16 16 15 14
7 7 6 6 6 7 7 8 8 10 9 11 11 11 13 13 13 13 14 14 14 15 15 15 16 17 17 16 16 16 16 16 17 18 17 17 17 17 17 15 15 15 16 15 14
7 7 6 7 7 7 7 7 8 9 10 10 11 12 13 13 13 12 13 13 13 13 14 14 14 14 16 16 16 16 17 16 17 17 17 17 18 18 18 17 15 15 15 15 15

GFSSW_700_temp_279.txt.gz
Temp
12 12 12 13 13 13 13 13 13 13 14 14 14 14 14 14 14 14 15 15 15 15 16 16 16 16 16 16 16 16 16 15 16 16 16 15 16 14 13 14 13 13 12 12 12
11 11 12 12 13 13 13 13 13 13 14 14 14 14 14 14 14 14 14 14 15 15 16 16 16 16 16 16 16 16 16 17 17 17 16 16 16 15 15 14 13 13 12 12 12
11 11 12 12 12 13 13 13 13 14 14 14 14 14 15 15 15 15 14 14 15 15 16 16 16 16 16 16 15 16 17 18 18 17 16 17 16 15 15 14 13 12 13 13 12
11 11 11 12 12 12 13 13 13 14 14 14 14 14 14 15 15 15 14 14 15 15 15 16 16 16 16 16 17 17 18 18 18 18 16 17 17 16 15 15 14 14 13 13 12
11 11 11 12 12 12 13 13 13 14 14 14 14 14 14 15 15 15 14 14 14 15 15 15 16 15 16 16 17 16 16 17 17 18 16 16 17 16 16 15 14 14 14 13 13
10 11 11 11 12 12 12 13 13 13 14 14 14 14 15 15 14 15 15 15 15 15 15 15 15 15 16 16 16 16 16 18 17 18 17 16 17 17 17 16 15 15 14 14 12
10 10 11 11 11 12 12 12 13 13 14 14 14 15 15 14 15 15 15 15 15 15 15 15 15 15 16 16 16 17 17 17 16 17 17 16 17 17 16 16 15 15 14 13 12
10 10 10 11 11 12 12 12 12 13 13 14 14 15 14 14 15 16 16 15 15 15 15 15 15 15 15 16 16 17 17 17 17 17 16 17 18 18 17 16 15 15 15 14 13
9 10 10 11 11 11 12 12 13 13 13 14 14 15 14 14 14 14 15 14 14 15 15 15 15 15 15 16 16 16 17 17 17 17 17 17 18 18 17 17 15 15 15 14 13
10 10 10 11 11 11 11 11 12 12 13 13 14 14 14 14 15 14 14 14 14 14 15 15 15 15 15 16 16 16 16 17 16 16 16 16 18 17 17 17 16 15 15 15 13
9 10 10 11 11 10 11 11 12 12 13 14 14 14 14 14 14 14 14 14 15 14 14 14 15 15 16 15 15 16 16 16 17 17 16 17 18 18 17 17 17 16 16 15 14
10 10 10 10 10 10 10 11 12 13 14 13 14 14 14 14 14 13 14 14 14 14 14 14 14 15 15 15 15 16 16 16 17 17 18 17 18 17 17 17 17 16 15 15 14
10 10 10 10 10 10 10 10 11 12 13 15 15 15 14 14 14 14 14 13 14 14 13 13 14 15 15 15 15 16 16 16 16 17 17 17 18 18 17 17 17 15 14 14 15
10 10 10 10 10 10 10 10 11 11 12 14 15 14 14 14 14 14 14 13 13 13 13 13 14 15 15 15 15 16 17 16 16 17 17 17 17 18 18 17 17 16 15 14 15
9 10 10 9 10 10 10 10 10 11 9 14 14 15 14 14 14 14 13 13 13 13 13 13 14 14 15 16 15 17 16 16 16 17 17 17 17 19 17 17 17 16 16 15 15
10 10 10 10 10 10 10 10 10 10 11 14 14 14 14 14 13 13 13 13 13 13 13 13 14 14 14 15 15 16 16 16 16 17 15 17 17 18 18 18 17 17 17 16 15
10 10 10 10 10 10 10 10 10 10 12 13 13 14 14 14 14 13 13 13 13 13 13 13 13 14 14 15 15 16 16 16 15 14 13 16 16 18 18 18 17 17 17 16 15
10 10 10 10 10 10 10 10 10 11 11 12 13 14 14 14 14 14 13 13 13 13 14 14 14 14 15 15 16 16 17 16 12 11 14 16 17 18 18 17 17 17 17 16 15
10 10 10 11 10 10 10 9 11 11 11 12 13 13 13 14 14 14 14 14 14 14 13 14 14 15 15 16 15 16 16 17 16 14 14 16 17 18 18 17 18 17 17 16 16
10 10 10 10 9 9 9 10 11 11 11 12 12 13 13 13 14 14 14 15 14 15 14 14 14 15 16 16 16 16 17 16 16 11 13 15 16 17 18 17 18 18 18 17 16
9 9 9 9 8 9 8 9 11 11 10 11 12 12 13 13 14 14 14 15 15 15 15 14 14 15 16 16 17 17 16 16 17 16 12 11 16 18 17 17 17 17 18 18 17
8 8 7 7 7 8 8 9 9 10 10 11 12 12 12 13 13 14 14 14 15 15 15 15 15 15 16 16 16 16 17 17 17 15 16 15 17 18 17 17 17 17 18 17 15
7 7 7 6 7 7 7 8 9 10 10 11 11 11 12 12 12 13 14 14 14 15 16 16 15 15 16 16 16 16 17 17 17 17 16 15 16 17 17 17 17 17 17 16 15
6 6 6 6 6 6 7 8 9 9 11 10 11 12 12 13 13 13 14 14 14 14 15 16 16 16 15 16 16 16 17 17 16 16 17 17 18 17 17 17 17 17 16 16 15
7 6 6 6 6 6 6 7 7 9 9 10 11 11 12 12 13 13 13 13 14 14 14 14 15 15 16 16 16 16 16 16 16 16 16 17 17 18 18 17 17 17 16 15 15
7 6 6 6 6 6 6 6 7 8 8 9 10 11 12 12 12 13 13 13 13 14 14 14 14 14 15 16 16 16 16 16 16 16 16 17 17 18 17 16 16 15 15 16 15
7 6 6 6 6 6 6 7 7 8 8 9 9 10 11 12 12 12 12 12 12 13 13 13 14 14 15 15 14 15 15 17 16 16 16 17 17 17 17 17 17 16 16 16 15

GFSSW_700_temp_282.txt.gz
Temp
11 12 12 12 13 13 13 13 13 13 14 14 14 14 14 14 14 15 15 14 14 15 15 15 15 16 15 16 16 16 16 16 16 16 16 15 15 15 14 14 13 13 12 12 12
11 11 12 12 12 13 13 13 13 13 13 14 14 14 14 14 14 15 14 14 14 15 15 15 15 15 15 15 16 16 16 16 17 16 16 15 15 15 14 14 14 13 12 12 12
11 11 11 12 12 12 13 13 13 13 13 14 14 14 15 14 15 14 14 14 14 15 15 15 16 15 16 15 16 16 16 17 17 16 16 16 16 15 14 14 15 14 12 12 12
11 11 11 12 12 12 12 13 13 13 14 14 14 14 15 15 14 15 14 14 14 15 15 15 15 15 16 16 16 16 16 17 17 17 17 16 16 15 14 14 15 14 13 12 12
10 11 11 11 12 12 12 13 13 13 14 14 14 14 15 15 15 15 14 14 14 15 15 15 15 16 15 16 16 17 17 17 17 17 17 17 16 15 15 15 14 14 13 12 11
10 10 11 11 12 12 12 13 13 13 14 14 14 14 15 15 14 15 15 14 14 15 15 15 15 15 15 16 16 16 17 17 17 16 16 16 16 16 15 15 15 14 13 12 12
10 10 10 11 11 12 12 12 13 13 14 14 14 14 15 14 15 15 15 14 14 14 14 14 15 15 15 16 16 16 17 17 17 17 16 16 16 16 16 16 15 15 13 13 12
9 10 10 11 11 11 12 12 13 13 13 14 14 14 14 15 15 15 15 14 14 14 14 14 15 15 15 16 16 16 17 17 16 16 16 16 17 16 16 16 16 15 14 13 12
10 10 10 11 11 11 11 12 12 13 13 14 14 14 14 15 15 14 14 14 14 14 14 14 14 15 15 15 16 16 16 16 16 16 15 15 16 16 16 16 16 15 14 14 13
10 10 10 10 11 10 11 12 12 13 13 14 14 14 14 14 15 15 14 13 14 14 14 14 14 15 15 15 15 16 15 16 16 16 16 16 17 17 16 16 16 15 14 14 13
10 10 10 10 10 10 11 12 12 13 13 13 14 13 14 14 14 14 14 13 13 14 14 14 14 15 16 15 15 15 15 15 16 16 16 16 17 17 16 16 16 15 15 14 13
10 10 10 10 10 10 11 11 12 12 13 14 14 14 13 14 14 14 14 14 14 14 14 13 14 15 15 15 15 15 15 16 16 16 16 17 17 18 17 17 16 15 15 14 14
9 10 10 10 10 10 11 11 11 12 13 14 14 14 14 14 13 14 14 13 14 14 14 13 14 14 15 15 15 15 16 16 16 16 16 17 18 18 18 18 17 16 15 15 14
9 10 10 10 10 10 11 10 11 11 12 13 14 14 14 14 13 13 13 13 13 13 13 13 13 14 14 15 15 15 16 16 16 16 15 16 17 18 18 18 18 17 16 16 15
10 10 10 10 9 10 10 10 10 11 9 13 13 14 14 13 13 13 13 13 13 13 13 13 13 13 14 14 15 15 15 16 16 16 15 17 17 18 18 18 19 18 17 16 15
10 10 10 10 10 10 10 9 10 10 11 13 13 13 14 13 13 13 13 12 12 12 12 13 13 13 13 14 14 14 15 16 16 16 15 17 16 17 17 18 18 18 17 16 16
10 10 10 10 10 10 10 9 10 10 12 12 12 13 13 13 13 12 12 13 12 12 13 13 13 13 13 14 14 14 15 15 13 12 12 16 16 17 17 18 18 18 17 17 16
10 10 10 10 10 9 9 9 10 11 12 12 13 13 13 13 13 13 12 12 13 13 13 13 13 14 14 14 15 15 16 15 12 11 14 15 16 17 17 18 18 17 17 16 17
10 10 10 10 9 9 9 9 11 10 11 11 12 13 13 13 13 13 13 13 13 13 13 13 13 14 14 15 15 15 16 16 15 13 13 15 17 17 18 18 17 17 17 17 17
9 10 10 10 9 9 9 10 10 10 10 11 11 13 13 13 13 14 14 14 14 14 14 14 13 14 14 15 15 15 16 16 15 11 12 15 16 17 17 18 18 17 18 17 17
9 9 9 9 8 8 8 9 9 10 10 11 12 12 12 12 13 13 14 14 14 14 14 14 13 14 14 15 15 16 16 16 16 15 10 10 15 17 18 18 18 17 17 17 17
8 8 8 7 7 7 8 8 9 10 10 11 11 11 11 12 13 13 13 13 14 14 14 15 14 14 15 15 16 16 16 16 15 15 15 14 16 17 18 18 17 17 17 17 17
8 7 7 7 6 6 6 7 9 9 9 10 11 11 11 12 13 13 13 13 13 14 14 15 14 14 14 15 15 16 16 16 16 16 16 14 16 17 17 18 18 17 17 17 17
7 6 6 7 6 6 6 7 7 8 9 9 10 11 11 12 12 12 13 13 13 13 14 15 14 15 15 16 16 16 16 16 15 16 16 16 17 17 17 18 18 17 17 17 17
6 6 7 6 6 6 6 7 7 8 8 9 9 10 11 12 12 13 13 13 13 13 13 13 14 14 15 16 16 16 16 16 16 16 16 16 17 17 17 18 18 18 17 16 16
7 6 6 6 7 6 6 6 6 7 8 9 9 10 11 12 12 12 12 12 13 13 13 13 13 14 15 15 15 16 15 16 16 16 16 16 17 17 17 18 18 18 17 17 16
6 6 6 6 6 6 6 6 6 7 8 8 9 10 10 10 11 12 12 11 12 12 13 13 13 13 14 14 15 14 15 16 16 16 16 16 17 17 18 18 18 18 17 17 16

GFSSW_700_temp_285.txt.gz
Temp
11 12 12 12 13 13 13 13 14 14 14 14 14 14 14 14 14 14 14 14 14 15 15 15 15 15 15 16 16 16 16 16 16 16 16 15 14 14 14 13 13 12 11 12 12
11 11 12 12 12 13 13 13 13 14 14 14 14 14 14 14 14 14 14 14 14 14 15 15 15 15 16 16 16 16 16 17 16 16 16 16 15 14 14 14 13 12 12 12 12
11 11 11 12 12 13 13 13 13 14 14 14 14 14 15 14 14 14 14 14 14 14 15 15 15 15 16 16 16 17 16 17 17 16 15 16 15 14 14 14 13 13 12 12 12
11 11 11 12 12 12 13 13 13 14 14 14 14 14 15 15 14 14 14 14 14 14 15 15 15 15 15 16 16 17 17 17 17 17 16 16 15 15 14 14 14 14 13 12 12
10 10 11 11 12 12 12 13 13 13 14 14 14 14 15 15 14 15 14 14 14 14 15 15 15 15 15 16 16 17 17 17 17 17 16 16 16 15 14 13 14 14 14 12 11
10 10 11 11 11 12 12 13 13 13 14 14 14 15 15 14 14 15 14 14 14 14 14 14 15 15 15 16 16 16 17 18 17 17 16 16 15 15 15 14 13 13 13 13 11
10 10 11 11 11 11 12 12 13 13 14 14 14 14 15 14 15 15 15 14 14 14 14 14 15 15 15 16 16 16 17 17 17 17 16 16 16 15 15 14 13 13 13 12 11
10 10 10 11 11 11 11 12 12 13 13 14 14 14 14 15 14 15 14 14 14 14 14 14 14 15 15 15 15 16 17 17 17 17 16 16 17 16 16 15 14 14 13 12 12
10 10 10 10 11 11 12 12 12 13 13 13 14 14 14 14 14 14 14 14 14 14 14 14 14 15 15 15 15 16 16 16 16 17 16 16 16 16 16 15 15 14 13 12 12
10 10 10 11 10 11 12 12 12 13 13 13 13 14 14 14 14 14 14 13 14 14 14 14 14 15 15 15 16 16 16 16 16 16 16 17 17 16 16 15 15 15 14 14 12
10 10 10 11 10 11 12 12 12 12 13 13 13 13 14 14 14 14 14 13 13 13 14 14 14 14 15 15 15 15 16 16 16 16 16 16 17 16 16 17 17 16 15 14 14
10 10 10 11 11 11 11 11 12 12 13 13 13 13 13 14 14 14 13 13 13 13 13 13 14 14 15 15 15 15 16 16 16 16 16 16 17 18 17 17 17 16 15 14 14
10 10 10 11 10 11 11 11 11 12 13 13 13 13 13 13 13 14 13 13 13 13 13 13 13 14 15 15 15 15 15 16 15 16 17 16 17 17 18 18 17 17 16 15 14
10 10 10 10 10 11 11 11 11 12 12 12 13 13 13 13 13 13 13 13 13 13 13 13 13 14 14 14 15 15 15 15 15 16 16 16 17 17 18 18 18 18 17 16 15
10 10 10 10 10 10 10 11 11 11 13 12 12 13 13 12 13 13 13 12 12 13 13 13 14 14 13 14 15 15 15 15 16 16 15 16 16 17 18 18 18 18 17 17 16
10 10 10 10 10 10 10 10 11 11 12 12 12 12 12 12 12 13 12 12 12 12 12 12 13 13 13 13 14 14 14 15 16 16 16 16 16 17 17 17 18 18 18 17 16
10 10 10 10 10 10 10 10 10 11 11 11 12 12 12 12 12 13 12 12 12 12 12 13 13 13 13 13 13 14 14 16 16 17 17 16 15 17 17 17 18 18 18 17 16
10 10 10 11 10 9 9 9 9 11 11 11 12 13 13 13 13 12 12 12 12 12 13 13 14 13 13 13 14 14 15 16 16 17 17 15 16 17 17 17 18 18 17 17 17
10 10 10 10 10 9 9 9 10 10 11 11 12 13 13 13 13 13 13 13 13 13 12 13 13 14 13 13 13 14 14 15 15 15 15 16 17 17 18 18 18 17 17 17 17
10 9 10 10 9 9 8 9 10 10 11 11 11 12 12 13 13 13 13 13 13 13 13 13 13 14 13 14 14 15 15 15 15 15 16 16 16 17 17 18 18 18 17 17 17
9 9 9 9 8 8 8 9 9 10 11 11 11 12 12 13 13 13 13 13 13 14 14 14 13 14 14 14 14 15 14 15 15 15 17 17 17 17 17 18 18 17 17 17 17
8 8 8 8 7 7 8 8 9 10 10 11 11 11 12 13 13 13 13 13 13 14 14 14 13 13 14 14 14 15 15 15 16 15 15 15 17 17 17 17 17 18 17 17 17
8 7 7 7 6 7 7 8 9 9 10 10 11 11 12 12 13 13 13 13 13 14 14 14 13 14 14 15 15 15 15 16 16 16 15 17 17 17 17 17 17 17 17 17 17
7 7 7 6 6 6 7 7 8 9 9 10 10 11 12 12 12 12 13 13 13 13 14 14 14 14 15 15 15 15 16 16 15 16 16 16 17 17 17 18 17 17 17 17 17
7 7 7 6 6 6 6 7 8 8 9 9 9 10 11 12 12 12 13 13 13 13 13 13 13 14 14 15 15 15 15 15 15 16 15 16 16 17 17 17 18 18 18 18 17
7 6 6 6 6 6 6 7 7 7 8 9 9 10 11 11 12 12 12 13 13 13 13 13 13 14 14 15 15 15 15 15 15 15 16 16 16 17 17 18 18 18 18 18 17
7 6 6 6 6 6 6 6 7 7 8 8 9 9 9 10 11 12 12 12 12 12 13 13 13 14 14 14 14 14 16 16 16 15 16 16 16 16 17 18 18 18 18 17 16

GFSSW_700_temp_288.txt.gz
Temp
12 12 12 13 13 13 13 14 14 14 14 14 14 14 14 14 14 14 14 14 14 15 15 15 15 15 16 16 17 17 17 18 17 16 15 15 14 14 14 13 12 12 10 12 12
11 12 12 12 13 13 13 13 14 14 14 14 14 14 14 14 14 14 14 14 14 15 15 15 14 15 15 15 16 16 17 17 17 15 15 16 14 14 14 13 12 12 12 12 12
11 11 12 12 12 13 13 13 14 14 14 14 14 14 14 15 14 14 14 14 14 15 15 15 15 15 16 16 16 16 17 17 17 17 16 15 15 14 13 12 12 12 12 12 12
11 11 11 12 12 13 13 13 13 14 14 14 14 14 14 14 14 15 14 14 14 15 15 15 15 15 16 16 16 16 16 18 18 17 16 16 15 14 13 14 14 14 13 12 12
11 11 11 12 12 12 13 13 13 14 14 14 14 14 14 14 14 15 15 14 14 14 14 15 15 15 16 16 16 16 17 18 18 17 16 16 15 15 15 14 14 14 13 12 12
10 11 11 11 12 12 13 13 13 14 14 14 14 14 14 14 14 15 15 14 14 14 14 14 15 15 16 16 16 16 17 17 18 17 17 16 15 15 14 14 14 14 14 12 11
10 10 11 11 11 11 12 13 13 14 14 14 14 14 14 14 15 15 15 15 14 14 14 14 15 15 15 16 16 16 16 16 17 17 17 16 15 15 15 14 14 13 13 13 12
10 10 11 11 11 11 12 12 13 13 13 14 14 14 14 14 15 15 15 14 14 14 14 14 15 15 15 15 16 16 17 18 17 17 17 16 17 16 15 14 14 13 13 13 12
10 10 11 11 11 12 12 12 12 13 13 13 14 14 14 14 14 14 14 14 14 14 14 14 14 15 15 16 17 17 18 17 17 17 17 17 17 16 16 15 14 14 13 13 12
10 10 11 11 11 11 12 12 12 13 13 13 13 14 14 14 14 14 14 14 14 14 14 14 14 15 16 16 18 18 18 17 17 16 17 16 17 16 17 15 14 14 13 13 13
10 10 11 11 11 11 11 12 12 12 13 13 13 13 14 14 14 14 13 13 13 13 14 14 15 16 17 17 17 16 17 17 17 16 17 17 17 17 17 17 15 14 14 14 13
10 10 10 11 11 11 11 11 11 12 12 13 13 13 13 13 13 13 13 12 13 14 14 14 15 16 16 16 16 16 17 17 17 16 16 17 17 17 17 17 17 16 15 14 13
10 10 10 11 11 11 11 11 11 12 12 12 13 13 13 13 12 12 13 12 13 14 14 15 16 16 15 15 15 16 17 18 17 16 17 17 18 17 18 18 18 17 16 15 14
10 10 10 11 11 10 11 11 11 12 12 11 12 13 13 13 12 13 12 12 12 14 14 14 15 14 14 15 16 17 17 16 16 16 18 17 19 19 17 18 18 18 17 16 15
10 10 10 11 11 10 11 11 11 12 16 12 12 13 13 12 12 13 13 12 13 13 13 15 14 14 15 15 16 16 16 16 16 17 18 18 18 19 18 18 18 18 18 17 16
10 10 11 11 11 10 10 11 11 12 14 12 12 12 12 12 12 13 12 12 12 12 13 14 13 14 14 15 15 15 15 16 16 17 18 19 18 19 19 18 18 17 18 17 17
10 10 11 11 11 10 10 11 11 14 12 12 12 12 13 13 12 12 12 12 13 13 14 14 13 13 13 14 14 14 16 17 18 19 19 19 18 19 19 18 18 17 18 18 17
10 10 10 11 11 10 10 10 12 11 12 11 12 12 13 13 13 13 13 13 13 14 15 15 16 14 14 14 15 15 16 18 18 20 21 18 18 18 18 18 17 18 17 17 17
10 10 10 11 10 10 10 10 12 11 10 11 12 13 13 13 13 13 14 14 14 14 15 15 15 14 14 14 15 16 16 17 18 19 19 20 19 18 18 18 18 18 17 17 17
10 10 10 10 10 9 9 11 10 10 11 11 13 13 14 14 14 14 14 14 14 14 14 15 15 14 14 14 14 15 16 17 17 18 18 19 19 18 18 18 18 18 17 17 17
9 9 9 10 10 9 9 10 10 10 11 10 11 13 14 14 14 14 14 13 13 14 14 15 15 15 14 14 15 14 15 16 17 18 20 20 20 19 18 18 18 18 17 16 16
9 6 9 9 8 7 8 8 10 9 11 11 11 11 13 13 14 14 14 14 14 14 14 14 15 16 16 15 15 16 16 17 17 17 17 18 19 18 18 18 18 17 17 17 17
8 8 8 8 8 8 8 8 9 9 9 10 10 11 11 13 14 14 14 13 13 14 13 13 15 16 16 15 15 15 16 16 17 18 18 19 19 18 18 18 17 17 17 17 17
8 6 7 7 7 7 7 8 8 10 9 11 10 11 11 12 12 13 14 13 13 13 14 14 16 16 17 17 16 16 16 16 17 17 18 18 18 18 18 18 18 17 17 17 17
7 6 7 6 6 6 7 7 8 9 9 10 10 10 10 12 13 13 13 13 13 13 13 14 15 15 15 15 15 16 16 16 16 17 17 18 18 17 17 17 17 17 17 17 17
7 7 6 7 6 6 6 7 8 8 8 9 10 9 11 11 11 12 12 13 14 12 13 13 14 14 15 15 15 15 16 16 16 16 16 17 17 17 17 17 16 17 17 17 17
7 7 6 5 6 6 7 7 7 8 8 7 8 9 10 9 12 12 12 12 12 12 13 13 14 14 15 15 15 16 16 16 16 16 16 17 17 17 17 17 17 17 17 17 17

GFSSW_700_temp_291.txt.gz
Temp
12 13 13 13 14 14 14 14 14 14 15 15 15 15 15 15 14 14 14 14 15 15 16 16 16 16 17 16 17 17 18 19 18 18 16 15 15 14 14 13 13 12 13 11 13
12 12 13 13 13 14 14 14 14 14 14 14 15 15 15 15 15 14 14 15 15 15 16 15 16 16 17 18 18 18 19 18 18 18 17 16 15 14 14 13 12 12 12 13 12
12 12 12 13 13 14 14 14 14 14 14 14 14 15 15 15 15 14 15 15 15 15 16 16 15 16 18 18 18 18 18 18 17 17 17 16 16 15 14 15 14 12 11 13 12
11 12 12 12 13 13 14 14 14 14 14 14 14 14 15 15 15 15 15 15 15 15 16 16 16 17 18 19 18 18 18 18 17 17 17 17 16 15 15 14 14 12 12 11 11
11 11 12 12 13 13 13 14 14 14 14 14 14 14 15 14 14 15 15 15 15 15 16 16 16 17 18 19 18 18 18 18 17 16 16 16 16 15 14 14 13 14 13 11 10
11 11 12 12 12 13 13 14 14 14 14 14 14 14 14 14 14 15 16 15 15 15 15 15 16 17 18 18 18 18 18 17 17 17 16 16 16 16 14 14 15 14 12 11 11
11 11 11 12 12 13 13 13 14 14 14 14 14 14 14 14 15 15 15 15 14 15 15 16 16 16 17 18 18 18 18 18 18 17 17 16 16 16 16 15 14 13 12 11 11
11 11 11 11 12 12 13 13 13 14 14 14 14 14 13 15 15 15 15 15 15 15 15 16 15 16 17 18 18 18 19 19 18 18 17 17 14 16 15 15 14 13 12 12 11
11 11 11 12 12 12 12 12 13 13 14 14 14 14 13 15 15 15 15 15 14 15 15 15 15 16 17 17 18 19 19 20 19 18 18 18 18 16 15 14 14 13 12 12 11
11 11 11 12 12 12 12 12 12 13 13 13 13 14 14 13 12 15 15 14 14 14 14 15 15 16 17 18 19 19 20 20 19 18 18 18 19 17 17 15 14 14 13 12 12
10 11 11 11 11 12 12 12 12 12 13 12 12 12 12 12 15 15 14 14 14 15 15 15 16 17 18 18 19 20 20 20 19 18 18 19 19 18 17 16 16 15 13 13 12
10 11 11 11 11 11 11 11 12 12 12 12 13 13 12 14 13 13 13 13 14 15 16 17 17 17 18 18 19 19 19 20 20 18 18 19 19 19 18 17 16 16 15 13 13
10 10 11 11 11 11 11 12 12 12 13 12 12 12 12 14 13 14 13 14 15 16 17 17 18 18 18 18 19 18 19 19 19 19 18 19 19 19 19 18 17 16 16 15 14
10 10 11 11 11 11 11 11 12 12 12 13 12 12 13 13 13 14 13 14 15 16 17 17 17 17 18 18 18 18 19 19 19 18 19 19 20 18 19 18 18 17 16 16 14
10 11 11 11 11 11 11 11 12 12 17 14 13 13 12 13 15 13 14 14 15 15 16 17 17 17 17 17 17 18 19 19 19 19 19 20 20 21 19 20 19 17 17 16 16
11 11 11 11 11 11 11 11 12 12 17 14 13 13 13 13 14 13 13 14 15 16 15 16 17 16 17 17 17 18 18 18 18 18 20 20 21 21 21 14 19 19 18 17 16
11 11 11 11 11 11 11 11 12 15 15 14 14 14 14 15 15 14 14 14 15 15 16 16 17 16 16 17 17 17 18 19 20 20 21 21 21 21 21 20 19 19 19 18 16
11 11 11 11 11 11 11 9 14 16 16 14 15 15 16 16 16 15 15 15 16 17 18 18 18 17 16 16 18 17 18 19 19 21 22 21 22 21 20 20 19 19 19 18 17
11 11 11 11 11 11 11 12 16 15 14 15 15 15 16 16 16 16 16 16 17 16 18 19 18 17 17 17 17 18 18 19 20 21 22 21 16 19 20 19 20 19 19 18 17
10 10 11 11 11 11 9 13 14 12 12 13 16 16 17 16 15 16 16 17 17 16 16 18 18 17 17 16 16 17 19 19 19 20 20 22 20 21 20 20 19 20 18 18 17
9 8 10 10 10 10 11 13 12 11 12 13 15 16 17 17 17 17 17 16 16 16 16 17 17 18 17 16 17 17 17 18 19 20 21 21 21 19 20 19 19 19 19 18 18
9 9 9 10 9 10 12 12 11 12 12 13 13 15 16 17 17 17 17 17 15 16 16 16 18 18 18 18 17 18 18 18 19 19 20 20 20 19 19 19 19 19 19 18 17
8 7 9 9 10 11 11 10 11 12 12 13 13 14 14 15 16 17 17 15 14 15 16 16 17 19 19 18 17 17 17 18 19 20 20 21 19 20 20 19 19 19 18 17 17
8 8 7 8 8 10 11 11 11 11 12 12 13 13 14 14 15 16 16 15 14 15 15 15 17 18 19 18 18 18 17 18 18 19 20 20 20 20 19 19 19 18 17 17 17
7 8 8 9 9 10 10 11 11 11 11 11 12 13 14 15 15 15 16 15 14 14 14 15 17 17 18 17 17 17 18 18 18 18 19 20 18 19 19 18 18 17 17 16 16
7 6 7 8 8 9 9 10 11 12 11 12 12 13 13 14 15 15 15 15 16 15 15 15 16 16 16 17 17 17 17 18 18 18 18 18 19 19 18 18 18 16 15 17 16
8 7 7 8 8 9 10 10 10 10 10 11 12 12 12 12 12 12 12 14 15 14 15 16 16 16 17 17 17 17 18 17 18 18 18 18 18 18 18 17 17 16 15 15 17

GFSSW_700_temp_297.txt.gz
Temp
13 13 13 14 14 14 15 15 15 15 15 16 16 16 16 16 15 15 15 15 16 16 16 17 17 17 17 17 17 19 19 18 17 17 17 16 16 15 14 14 14 13 13 13 12
12 13 13 14 14 14 14 15 15 15 15 16 16 16 16 16 16 16 15 16 16 16 16 17 18 17 17 17 17 19 18 18 18 16 17 16 16 15 14 14 14 13 12 13 12
12 13 13 13 14 14 14 15 15 15 15 15 16 16 16 16 16 16 15 15 16 16 16 16 17 17 17 18 18 19 19 18 18 18 17 17 16 16 15 14 14 14 13 12 11
12 12 13 13 13 14 14 14 15 15 15 15 15 16 16 16 16 16 15 15 15 16 16 16 17 17 17 17 18 19 19 18 18 18 18 17 16 17 16 15 15 15 13 12 11
11 12 12 13 13 14 14 14 14 15 15 15 15 15 16 16 15 15 15 15 15 16 16 16 16 17 17 18 17 19 19 18 18 18 17 17 16 15 15 15 15 15 13 12 11
11 12 12 12 13 13 14 14 14 14 15 15 15 15 16 15 15 15 15 16 15 16 16 16 17 17 17 18 18 19 19 19 18 18 18 17 17 17 15 14 14 14 14 12 10
11 12 12 12 13 13 13 13 14 14 14 14 15 15 16 15 15 15 16 16 16 15 16 16 16 16 17 17 18 19 19 19 18 18 17 17 17 16 15 14 14 13 13 12 11
11 11 12 12 13 13 13 13 13 14 14 14 14 15 16 15 16 16 16 16 16 16 15 16 16 16 17 17 18 18 19 18 18 18 17 17 17 17 15 14 14 13 12 12 11
11 11 12 12 12 13 13 13 13 13 14 14 14 15 15 15 16 16 16 16 15 16 15 16 16 16 16 17 18 18 18 18 15 16 17 18 18 18 17 16 15 13 13 12 12
11 11 11 12 12 12 12 12 13 13 13 13 14 15 15 15 15 16 16 16 15 15 15 16 15 16 16 17 17 18 18 17 16 15 17 18 18 17 18 17 15 14 13 13 12
11 11 11 11 12 12 12 12 12 12 13 13 13 14 14 14 14 15 15 15 15 15 15 15 15 15 16 17 18 18 18 18 18 17 18 19 18 17 18 16 15 14 14 13 13
11 11 11 11 12 12 11 12 12 12 13 14 13 14 13 13 14 15 15 14 15 15 15 16 16 16 16 17 18 18 18 18 17 18 19 19 19 17 17 16 15 15 15 14 14
11 11 11 11 11 12 12 11 12 12 13 14 14 14 14 13 15 14 15 14 14 15 16 16 16 17 17 18 18 19 19 20 18 18 19 19 19 17 17 16 17 17 15 13 14
11 11 11 11 11 11 10 12 12 12 12 14 14 13 13 13 15 15 15 15 15 15 16 17 17 18 18 18 19 19 19 19 20 20 19 20 18 18 18 17 17 15 16 15 13
11 11 11 11 11 12 13 12 12 12 11 15 14 14 14 15 15 16 15 15 15 16 17 17 18 18 18 19 19 19 19 19 19 19 20 20 20 17 16 17 17 16 16 16 15
11 11 11 12 12 12 12 12 12 11 13 15 15 15 14 14 15 15 15 15 16 16 17 17 18 18 18 18 19 19 19 19 19 19 18 20 20 15 16 17 17 17 18 17 17
11 11 12 12 12 12 12 13 12 11 17 16 16 15 14 15 15 15 15 15 15 16 16 17 17 18 18 18 18 18 18 18 16 15 16 20 20 18 17 17 18 19 17 18 18
11 11 12 12 12 12 12 13 11 16 17 17 16 15 15 15 16 16 15 15 15 16 17 17 18 19 18 18 18 18 18 18 15 14 17 20 18 18 18 18 18 18 17 16 16
11 11 12 12 12 12 12 11 14 15 16 17 17 16 16 16 17 16 16 16 16 17 17 18 18 19 18 18 18 18 18 19 19 19 18 20 17 17 17 18 16 15 14 16 15
11 11 11 11 12 12 12 13 14 15 15 16 16 17 17 17 17 17 17 17 17 17 18 18 18 19 19 18 18 18 18 18 19 16 15 19 18 18 17 17 16 17 16 13 15
10 11 10 11 11 11 12 13 14 14 15 15 15 16 17 18 18 18 18 18 18 18 18 18 18 18 19 19 18 18 18 18 18 19 15 14 17 18 19 18 18 18 17 16 17
9 9 9 9 11 11 13 13 13 14 14 15 15 15 16 17 18 18 18 18 18 18 17 17 18 18 18 19 19 19 18 19 19 19 19 19 17 18 18 18 17 16 17 17 18
8 9 10 10 11 11 12 13 13 13 14 14 15 15 16 16 17 18 18 17 17 17 17 17 17 18 18 19 19 19 19 19 19 19 19 17 17 17 17 17 17 17 16 17 17
9 9 9 10 11 11 12 13 14 14 14 14 15 15 15 16 17 17 17 16 17 17 17 17 17 17 17 18 19 19 19 19 19 19 19 18 17 18 18 17 17 17 14 14 17
8 8 8 10 10 11 12 12 13 14 14 14 14 14 15 15 16 16 17 16 16 16 16 16 16 17 17 18 18 19 19 19 19 18 18 19 18 18 17 17 17 17 17 17 17
8 8 9 10 10 11 12 12 12 13 14 13 13 14 14 15 14 15 15 16 16 16 16 16 16 17 16 17 18 17 18 18 18 17 18 18 18 18 17 17 17 17 17 17 17
9 8 8 9 10 10 11 12 12 13 13 13 14 13 14 13 13 14 14 15 15 16 16 16 16 16 16 16 16 17 17 17 17 17 16 15 16 17 17 17 17 16 16 17 17